FW3119 Weather Reports


Display with metric or nautical units.
time (UTC)temp
F
wind
direction
speed
MPH
gust
MPH
rain 1hr
in
rain 24hr
in
rain mn
in
humidity
%
barometer
mb
20260507010002 42 13 0.0 0.0 0.00 0.40 0.00 96 945.5
20260507004600 42 29 0.0 0.0 0.00 0.40 0.00 96 945.1
20260507003059 42 33 0.0 0.0 0.00 0.40 0.00 96 945.1
20260507001504 42 57 0.0 0.0 0.00 0.40 0.00 96 945.0
20260507000003 42 20 0.0 0.0 0.00 0.40 0.00 96 944.7
20260506234503 42 329 0.0 0.0 0.00 0.40 0.00 96 944.6
20260506233101 42 24 0.0 0.0 0.00 0.40 0.00 96 944.6
20260506231555 43 16 0.0 0.0 0.00 0.40 0.00 96 944.4
20260506230050 43 355 0.0 0.0 0.00 0.40 0.40 96 944.1
20260506224550 43 46 0.0 0.0 0.00 0.40 0.40 96 943.8
20260506223056 43 11 0.0 0.0 0.00 0.40 0.40 96 943.5
20260506221600 44 53 0.0 0.0 0.00 0.40 0.40 96 943.6
20260506221501 44 22 0.0 0.0 0.00 0.40 0.40 96 943.6
20260506220101 44 54 0.0 0.0 0.00 0.40 0.40 96 943.5
20260506214557 44 18 0.0 0.0 0.00 0.40 0.40 96 943.5
20260506213056 44 49 0.0 0.0 0.00 0.40 0.40 96 943.3
20260506211547 44 30 0.0 0.0 0.00 0.40 0.40 96 942.9
20260506210045 45 355 0.0 0.0 0.01 0.52 0.40 96 942.6
20260506204553 46 30 0.0 0.0 0.01 0.52 0.40 96 942.3
20260506203041 46 323 0.0 0.0 0.01 0.52 0.40 95 942.1
20260506201539 47 21 0.0 0.0 0.02 0.52 0.40 95 941.9
20260506200035 47 344 0.0 0.0 0.01 0.51 0.39 95 942.0
20260506194534 48 32 0.0 0.0 0.01 0.51 0.39 95 941.9
20260506193027 51 340 0.0 0.0 0.01 0.51 0.39 95 941.7
20260506191539 54 9 0.0 0.0 0.00 0.50 0.38 95 941.5
20260506190040 55 224 0.0 0.0 0.00 0.50 0.38 96 941.1
20260506184539 55 200 0.0 0.0 0.00 0.50 0.38 96 941.2
20260506183045 55 189 0.0 0.0 0.00 0.50 0.38 96 941.2
20260506181536 55 171 0.0 0.0 0.00 0.50 0.38 96 941.3
20260506180033 55 242 0.0 0.0 0.00 0.50 0.38 96 941.2
20260506174532 55 166 0.0 0.0 0.00 0.50 0.38 96 941.3
20260506173030 55 187 0.0 0.0 0.01 0.50 0.38 96 941.4
20260506171543 55 204 0.0 0.0 0.01 0.50 0.38 96 941.4
20260506170040 55 216 0.0 0.0 0.03 0.50 0.38 96 941.5
20260506164544 55 238 0.0 0.0 0.04 0.50 0.38 96 941.5
20260506163035 55 133 0.0 0.0 0.06 0.50 0.38 96 941.7
20260506161537 54 227 0.0 0.0 0.06 0.49 0.37 96 941.7
20260506160040 54 219 0.0 0.0 0.07 0.48 0.36 96 941.8
20260506154531 54 162 0.0 0.0 0.06 0.46 0.34 96 941.8
20260506153026 54 262 0.0 0.0 0.07 0.45 0.33 96 941.9
20260506151532 54 252 0.0 0.0 0.07 0.43 0.31 96 941.6
20260506150031 54 197 0.0 0.0 0.07 0.41 0.28 95 941.8
20260506144523 54 213 0.0 0.0 0.09 0.40 0.28 95 941.7
20260506143037 53 209 0.0 0.0 0.11 0.39 0.27 95 941.6
20260506141545 53 186 0.0 0.0 0.10 0.37 0.25 95 941.8
20260506140043 53 171 0.0 0.0 0.08 0.34 0.22 95 942.0
20260506134541 53 176 0.0 0.0 0.07 0.32 0.20 94 942.2
20260506133042 53 188 0.0 0.0 0.05 0.28 0.17 94 942.7
20260506131516 53 223 0.0 0.0 0.04 0.27 0.15 94 942.9
20260506130012 53 201 0.0 0.0 0.03 0.26 0.14 94 943.0
20260506124512 53 227 0.0 0.0 0.03 0.25 0.13 94 942.5
20260506123012 53 216 0.0 0.0 0.03 0.24 0.12 93 942.6
20260506121516 53 263 0.0 0.0 0.03 0.23 0.11 93 942.8
20260506120015 53 203 0.0 0.0 0.04 0.23 0.11 93 942.6
20260506114520 53 204 0.0 0.0 0.04 0.22 0.10 92 942.7
20260506113014 53 208 0.0 0.0 0.05 0.21 0.09 92 942.7
20260506111512 53 182 0.0 0.0 0.04 0.20 0.08 91 942.9
20260506110013 53 190 0.0 0.0 0.04 0.19 0.07 91 943.1
20260506104509 53 226 0.0 0.0 0.04 0.18 0.06 89 943.0
20260506103015 54 197 0.0 0.0 0.04 0.17 0.05 88 942.7
20260506101501 54 180 0.0 0.0 0.03 0.16 0.04 86 942.6
20260506100101 55 205 0.0 0.0 0.02 0.15 0.03 84 942.5
20260506094601 56 185 0.0 0.0 0.01 0.14 0.02 82 942.4
20260506093105 56 185 0.0 0.0 0.00 0.13 0.01 80 942.3
20260506091506 56 185 0.0 0.0 0.00 0.13 0.01 79 942.3
20260506090007 56 185 0.0 0.0 0.00 0.13 0.01 81 942.5
20260506084515 55 203 0.0 0.0 0.00 0.13 0.01 85 942.5
20260506083005 55 209 0.0 0.0 0.00 0.13 0.01 86 942.2
20260506081517 54 191 0.0 0.0 0.00 0.13 0.01 90 942.1
20260506073014 53 151 0.0 0.0 0.00 0.13 0.01 94 942.4
20260506071513 53 150 0.0 0.0 0.00 0.13 0.01 94 942.5
20260506061548 53 21 0.0 0.0 0.00 0.13 0.01 94 943.1
20260506044534 53 21 0.0 0.0 0.00 0.13 0.01 93 944.1
20260506043029 54 21 0.0 0.0 0.00 0.13 0.01 92 944.4
20260506041557 54 21 0.0 0.0 0.00 0.13 0.01 92 944.6
20260506040044 55 21 0.0 0.0 0.00 0.13 0.01 92 944.7
20260506034545 56 21 0.0 0.0 0.00 0.13 0.01 92 944.7
20260506033039 56 11 0.0 0.0 0.00 0.13 0.01 92 944.5
20260506031525 57 20 0.0 0.0 0.00 0.13 0.01 92 944.5
20260506030023 58 13 0.0 0.0 0.01 0.13 0.01 91 944.5
20260506024517 59 11 0.0 0.0 0.01 0.13 0.01 89 944.3
20260506023012 60 355 0.0 0.0 0.01 0.13 0.01 88 944.4
20260506021520 60 355 0.0 0.0 0.01 0.13 0.01 85 944.2
20260506020022 61 13 0.0 0.0 0.00 0.12 0.00 81 944.2
20260506014519 61 17 0.0 0.0 0.00 0.12 0.00 81 944.0
20260506013025 60 211 0.0 0.0 0.00 0.12 0.00 82 943.9
20260506011512 60 210 0.0 0.0 0.00 0.12 0.00 84 943.8